Location: Barrio Las Umbrías
(40.4173°N, 4.8685°W)
Time: 12:37:23
(UTC+00:00)

Terra - Pass Details

Date: 17 August 2022
Orbit: 701 x 703 km, 98.1° (Epoch: 28 September)

Event Time Altitude Azimuth Distance (km) Brightness Sun altitude
Exits shadow 20:38:54 12° 74° (ENE) 2,043 3.8 -15.3°
Maximum altitude 20:39:51 13° 61° (ENE) 2,003 3.9 -15.5°
Drops below altitude 10° 20:41:50 10° 37° (NE) 2,177 4.3 -15.8°
Sets 20:45:23 0° 9° (N) 3,101 5.5 -16.4°
